Hourly Data Report for November 07, 2017

CARBERRY CS
MANITOBA

49°54'20.900" N
99°21'26.800" W
383.50 m
5010547
71170
WZE

Download Data

Hourly Data (November 2017)
Hourly Data Report for November 7, 2017
TIME
LST
Temp Definition
°C
Dew Point Definition
°C
Rel Hum Definition
%
Precip. Amount Definition
mm

Wind Dir Definition
10's deg

Wind Spd Definition
km/h
Visibility Definition
km
Stn Press Definition
kPa
Hmdx Definition


Wind Chill Definition


Weather Definition


00:00 -16.0 -17.8 86 0.0 26 15   98.27   -24 LegendNANA
01:00 -16.0 -17.7 87 0.0 24 10   98.26   -22 LegendNANA
02:00 -16.6 -18.6 84 0.0 22 10   98.23   -23 LegendNANA
03:00 -16.7 -19.0 82 0.0 23 11   98.21   -24 LegendNANA
04:00 -18.1 -20.3 83 0.0 22 9   98.16   -24 LegendNANA
05:00 -16.3 -18.3 84 0.0 23 11   98.13   -23 LegendNANA
06:00 -16.6 -18.8 83 0.0 24 10   98.06   -23 LegendNANA
07:00 -16.5 -18.6 84 0.0 23 12   97.98   -24 LegendNANA
08:00 -17.3 -19.6 82 0.0 21 11   97.92   -24 LegendNANA
09:00 -14.2 -16.7 81 0.0 21 10   97.86   -20 LegendNANA
10:00 -10.5 -13.2 80 0.0 21 12   97.78   -17 LegendNANA
11:00 -8.1 -12.5 71 0.0 22 22   97.64   -16 LegendNANA
12:00 -7.4 -12.8 66 0.0 24 27   97.52   -16 LegendNANA
13:00 -7.1 -12.6 65 0.0 23 28   97.42   -15 LegendNANA
14:00 -5.7 -11.6 63 0.0 24 27   97.36   -14 LegendNANA
15:00 -5.2 -10.9 64 0.0 25 25   97.32   -13 LegendNANA
16:00 -5.5 -11.1 65 0.0 26 34   97.34   -14 LegendNANA
17:00 -6.1 -11.3 67 0.0 26 26   97.36   -14 LegendNANA
18:00 -7.1 -12.2 67 0.0 27 24   97.39   -15 LegendNANA
19:00 -8.2 -12.7 70 0.0 29 17   97.51   -15 LegendNANA
20:00 -9.6 -13.4 74 0.0 28 20   97.51   -17 LegendNANA
21:00 -9.4 -13.0 75 0.0 27 23   97.49   -18 LegendNANA
22:00 -10.5 -13.6 78 0.0 27 19   97.54   -18 LegendNANA
23:00 -10.9 -14.0 78 0.0 26 20   97.59   -19 LegendNANA

Notes on Data Quality.

Legend

  • E = Estimated
  • M = Missing
  • NA = Not Available*
  • [empty] = Indicates an unobserved value
Date modified: